Regional Weather Roundup
Issued by NWS Goodland, KS

Home | Current Version | Previous Version | Graphics & Text | Print | Product List | Glossary On
Versions: 1 2 3 4 5 6 7 8 9 10 11 12 13 14 15 16 17 18 19 20 21 22 23 24 25 26 27 28 29 30 31 32 33 34 35 36 37 38 39 40 41 42 43 44 45 46 47 48 49 50
114
ASUS43 KGLD 072308
RWRGLD

GOODLAND FORECAST AREA HOURLY WEATHER ROUNDUP
NATIONAL WEATHER SERVICE GOODLAND KS
400 PM MST SUN FEB 07 2016

...OFFICIAL OBSERVATIONS...

CITY           SKY/WX    TMP DP  RH WIND       PRES   REMARKS
GOODLAND KS    CLOUDY    34  18  52 NW24G35   30.27S
HILL CITY KS   SUNNY     38  23  55 NW21G29   30.20S
IMPERIAL NEB   SUNNY     35  18  49 NW25G36   30.24R
MCCOOK NEB     SUNNY     38  20  48 NW26G37   30.20S
AKRON CO       CLOUDY    28  17  63 N23G31    30.30S WCI  14
BURLINGTON CO  CLOUDY    32  18  56 N21G26    30.29R WCI  20
LIMON CO       CLOUDY    26  19  74 N10       30.31R WCI  16
$$

...UNOFFICIAL OBSERVATIONS...

CITY           SKY/WX    TMP DP  RH WIND       PRES   REMARKS
COLBY KS       MOSUNNY   36  25  64 NW24G32   30.25S
GOVE KS          N/A     39  32  76 MISG        N/A
LENORA KS        N/A     37  32  82 MISG        N/A
NORTON KS      SUNNY     37  18  44 W25G32    30.17S
SHARON SPRINGS   N/A     37  22  54 NW22G30     N/A
KIT CARSON CO    N/A     33  21  60 MISG        N/A
YUMA CO          N/A     31  20  63 N18         N/A  WCI  19
$$




USA.gov is the U.S. government's official web portal to all federal, state and local government web resources and services.